This is the latest recevied weather packets stored in our database for station/object SHLBYV-WX. If no packets are shown the sender has not sent any weather packets the latest 1 day(s).
| Time | Temp. | Humidity | Pressure | Rain* | Wind** | Luminosity | Snow |
|---|---|---|---|---|---|---|---|
| 1778040952 | 6.67° C | 61% | 980.9 hPa | 0 mm | 1.34 m/s, 270° | - | - |
| 1778040092 | 6.67° C | 61% | 980.9 hPa | 0 mm | 1.34 m/s, 270° | - | - |
| 1778039149 | 6.67° C | 58% | 980.5 hPa | 0 mm | 1.79 m/s, 264° | - | - |
| 1778037351 | 7.78° C | 53% | 980.5 hPa | 0 mm | 0.89 m/s, 225° | - | - |
| 1778036493 | 7.78° C | 53% | 980.5 hPa | 0 mm | 0.89 m/s, 252° | - | - |
| 1778035551 | 7.78° C | 48% | 980.6 hPa | 0 mm | 1.34 m/s, 262° | - | - |
| 1778034669 | 7.22° C | 45% | 980.7 hPa | 0 mm | 1.34 m/s, 263° | - | - |
| 1778033750 | 8.33° C | 45% | 980.8 hPa | 0 mm | 1.79 m/s, 267° | - | - |
| 1778032876 | 8.89° C | 45% | 980.8 hPa | 0 mm | 1.34 m/s, 270° | - | - |
| 1778031951 | 8.89° C | 42% | 980.2 hPa | 0 mm | 0.89 m/s, 270° | - | - |
| 1778031072 | 8.89° C | 42% | 980.2 hPa | 0 mm | 0.89 m/s, 297° | - | - |
| 1778030150 | 8.33° C | 42% | 980.2 hPa | 0 mm | 2.24 m/s, 291° | - | - |
| 1778029279 | 8.33° C | 42% | 980.2 hPa | 0 mm | 1.79 m/s, 294° | - | - |
| 1778028349 | 8.89° C | 37% | 980.3 hPa | 0 mm | 1.79 m/s, 299° | - | - |
| 1778027464 | 9.44° C | 37% | 980.6 hPa | 0 mm | 1.79 m/s, 293° | - | - |
| 1778026550 | 9.44° C | 37% | 980.6 hPa | 0 mm | 2.68 m/s, 298° | - | - |
| 1778025686 | 10° C | 37% | 980.6 hPa | 0 mm | 3.13 m/s, 300° | - | - |
| 1778024750 | 10° C | 36% | 980.5 hPa | 0 mm | 3.58 m/s, 301° | - | - |
| 1778023867 | 10.56° C | 35% | 980.4 hPa | 0 mm | 3.58 m/s, 300° | - | - |
| 1778022951 | 10.56° C | 35% | 980.4 hPa | 0 mm | 4.02 m/s, 300° | - | - |
| 1778022078 | 10.56° C | 35% | 980.4 hPa | 0 mm | 4.02 m/s, 297° | - | - |
| 1778021152 | 11.11° C | 36% | 980.3 hPa | 0 mm | 4.47 m/s, 297° | - | - |
| 1778020270 | 11.11° C | 38% | 980.6 hPa | 0 mm | 4.92 m/s, 295° | - | - |
| 1778019350 | 11.67° C | 38% | 980.6 hPa | 0 mm | 4.92 m/s, 293° | - | - |
| 1778018481 | 11.67° C | 38% | 980.6 hPa | 0 mm | 5.36 m/s, 289° | - | - |
* Rain latest hour (hover to see other rain measurements)
** Current wind speed in m/s (hover to see current wind gust speed)